Regional Weather Roundup
Issued by NWS

Home | Current Version | Previous Version | Text Only | Print | Product List | Glossary Off
Versions: 1 2 3 4 5 6 7 8 9 10 11 12 13 14 15 16 17 18 19 20 21 22 23 24 25 26 27 28 29 30 31 32 33 34 35 36 37 38 39 40 41 42 43 44 45 46 47 48 49 50

000
ASUS44 KMEG 052100
RWRTN
TENNESSEE HOURLY STATE WEATHER ROUNDUP
NATIONAL WEATHER SERVICE MEMPHIS TN
300 PM CST THU MAR 05 2015

TNZ002-004-019-021-049-052-054-088>092-052200-
WEST TENNESSEE

CITY           SKY/WX    TMP DP  RH WIND       PRES   REMARKS
MEMPHIS INTL   MOSUNNY   30  12  47 N14G21    30.51R WCI  19
NWS MEMPHIS      N/A     29 N/A N/A MISG        N/A
JACKSON        SUNNY     27  11  51 N15       30.49R WCI  15
DYERSBURG      SUNNY     25   3  39 N10       30.53S WCI  15
UNION CITY       N/A     25  12  58 N14       30.50R WCI  13
PARIS          SUNNY     25   9  50 N10       30.47S WCI  15
LEXINGTON      SUNNY     28   9  43 N13       30.43S WCI  18
SAVANNAH       SUNNY     28  16  59 N12       30.45R WCI  18
$$

TNZ008-025-027-028-033-062-065-066-052200-
NORTH MIDDLE TENNESSEE

CITY           SKY/WX    TMP DP  RH WIND       PRES   REMARKS
NASHVILLE      PTSUNNY   27  18  69 N15       30.44R WCI  15
CLARKSVILLE    SUNNY     26  10  50 N16       30.46R WCI  14
COOKEVILLE     CLOUDY    21  19  93 N9        30.36R WCI  11
CROSSVILLE     CLOUDY    22  18  85 NW13G22   30.28R WCI  10
$$

TNZ061-075-076-078-094-096-097-052200-
SOUTH MIDDLE TENNESSEE

CITY           SKY/WX    TMP DP  RH WIND       PRES   REMARKS
FAYETTEVILLE   CLOUDY    21  19  93 N8          N/A  WCI  12
TULLAHOMA      CLOUDY    21  18  86 N13         N/A  WCI   9
WINCHESTER     CLOUDY    25  19  80 N14       30.34S WCI  13
COLUMBIA         N/A     27  25  93 N10       30.40S WCI  17
SHELBYVILLE    CLOUDY    23  21  93 N10       30.40R WCI  12
$$

TNZ017-018-042-046-047-052200-
NORTHEAST TENNESSEE

CITY           SKY/WX    TMP DP  RH WIND       PRES   REMARKS
TRI CITIES     LGT RAIN  28  26  92 NW6       30.23R FOG     WCI  22
ELIZABETHTON   LGT RAIN  27  25  93 W12       30.19R FOG     WCI  16
$$

TNZ012-013-036-069-073-074-052200-
CENTRAL EAST TENNESSEE

CITY           SKY/WX    TMP DP  RH WIND       PRES   REMARKS
KNOXVILLE      FRZ RAIN  28  25  88 N12       30.29R FOG     WCI  18
OAK RIDGE      CLOUDY    30  23  75 N5        30.31R WCI  25
GATLINBURG     CLOUDY    28  27  93 NW8       30.28R WCI  20
$$

TNZ083-085-099-052200-
SOUTHEAST TENNESSEE

CITY           SKY/WX    TMP DP  RH WIND       PRES   REMARKS
CHATTANOOGA    CLOUDY    32  25  75 N12       30.29R WCI  23
$$

SKY/WX REPORTED AS FAIR MEANS FEW OR NO CLOUDS BELOW
12 THOUSAND FEET.



USA.gov is the U.S. government's official web portal to all federal, state and local government web resources and services.